| time (UTC) | temp F | wind direction | speed MPH | gust MPH | rain 1hr in | rain 24hr in | rain mn in | humidity % | barometer mb |
| 20260905020026 | 57 | 296 | 3.0 | 7.0 | 0.00 | 0.39 | 0.00 | 85 | 1003.8 |
| 20260905014518 | 57 | 225 | 3.0 | 10.0 | 0.00 | 0.39 | 0.00 | 85 | 1003.5 |
| 20260905013016 | 57 | 325 | 3.0 | 12.0 | 0.00 | 0.39 | 0.00 | 84 | 1003.3 |
| 20260905011515 | 58 | 306 | 3.0 | 10.0 | 0.00 | 0.39 | 0.00 | 84 | 1003.0 |
| 20260905010013 | 58 | 240 | 3.0 | 12.0 | 0.00 | 0.39 | 0.00 | 84 | 1002.9 |
| 20260905004510 | 58 | 320 | 3.0 | 9.0 | 0.00 | 0.39 | 0.00 | 85 | 1002.8 |
| 20260905003008 | 58 | 212 | 5.0 | 13.0 | 0.00 | 0.39 | 0.00 | 84 | 1002.6 |
| 20260905001505 | 58 | 219 | 4.0 | 12.0 | 0.00 | 0.39 | 0.00 | 84 | 1002.5 |
| 20260905000003 | 58 | 239 | 5.0 | 14.0 | 0.00 | 0.39 | 0.00 | 84 | 1002.4 |
| 20260904234601 | 58 | 231 | 4.0 | 10.0 | 0.00 | 0.39 | 0.00 | 85 | 1002.5 |
| 20260904233059 | 58 | 246 | 3.0 | 14.0 | 0.00 | 0.39 | 0.00 | 85 | 1002.3 |
| 20260904231557 | 58 | 223 | 3.0 | 14.0 | 0.00 | 0.39 | 0.00 | 85 | 1002.2 |
| 20260904230055 | 58 | 246 | 3.0 | 12.0 | 0.00 | 0.39 | 0.00 | 86 | 1002.3 |
| 20260904224604 | 58 | 229 | 3.0 | 12.0 | 0.00 | 0.39 | 0.00 | 86 | 1002.1 |
| 20260904223051 | 58 | 238 | 3.0 | 13.0 | 0.00 | 0.39 | 0.00 | 86 | 1002.1 |
| 20260904221551 | 58 | 277 | 5.0 | 11.0 | 0.00 | 0.39 | 0.00 | 86 | 1002.0 |
| 20260904220046 | 58 | 217 | 4.0 | 15.0 | 0.00 | 0.39 | 0.00 | 86 | 1002.1 |
| 20260904214549 | 57 | 284 | 3.0 | 12.0 | 0.00 | 0.39 | 0.39 | 86 | 1001.8 |
| 20260904213043 | 57 | 281 | 2.0 | 12.0 | 0.00 | 0.39 | 0.39 | 86 | 1001.8 |
| 20260904211543 | 57 | 247 | 3.0 | 11.0 | 0.00 | 0.39 | 0.39 | 86 | 1001.7 |
| 20260904210048 | 57 | 265 | 4.0 | 11.0 | 0.00 | 0.39 | 0.39 | 87 | 1001.6 |
| 20260904204538 | 57 | 219 | 4.0 | 11.0 | 0.00 | 0.39 | 0.39 | 86 | 1001.5 |
| 20260904203036 | 58 | 306 | 3.0 | 11.0 | 0.00 | 0.39 | 0.39 | 87 | 1001.3 |
| 20260904201542 | 58 | 213 | 5.0 | 16.0 | 0.00 | 0.39 | 0.39 | 87 | 1001.0 |
| 20260904200033 | 58 | 281 | 6.0 | 12.0 | 0.00 | 0.39 | 0.39 | 88 | 1000.9 |
| 20260904194529 | 58 | 255 | 4.0 | 15.0 | 0.00 | 0.39 | 0.39 | 87 | 1000.7 |
| 20260904193032 | 59 | 194 | 3.0 | 16.0 | 0.00 | 0.39 | 0.39 | 88 | 1000.4 |
| 20260904191529 | 59 | 237 | 3.0 | 14.0 | 0.00 | 0.39 | 0.39 | 89 | 1000.2 |
| 20260904184524 | 59 | 205 | 3.0 | 10.0 | 0.01 | 0.39 | 0.39 | 91 | 999.7 |
| 20260904183025 | 59 | 232 | 2.0 | 8.0 | 0.06 | 0.39 | 0.39 | 91 | 999.5 |
| 20260904181523 | 59 | 240 | 2.0 | 6.0 | 0.08 | 0.39 | 0.39 | 91 | 999.5 |
| 20260904180022 | 59 | 249 | 0.0 | 0.0 | 0.08 | 0.39 | 0.39 | 91 | 999.4 |
| 20260904174527 | 59 | 262 | 0.0 | 3.0 | 0.07 | 0.39 | 0.39 | 90 | 999.3 |
| 20260904173021 | 60 | 311 | 2.0 | 7.0 | 0.01 | 0.32 | 0.32 | 89 | 999.4 |
| 20260904171521 | 60 | 248 | 2.0 | 7.0 | 0.00 | 0.31 | 0.31 | 88 | 999.1 |
| 20260904170019 | 61 | 254 | 1.0 | 5.0 | 0.00 | 0.31 | 0.31 | 88 | 999.1 |
| 20260904164519 | 61 | 258 | 0.0 | 4.0 | 0.00 | 0.31 | 0.31 | 87 | 999.1 |
| 20260904163027 | 61 | 244 | 1.0 | 4.0 | 0.00 | 0.31 | 0.31 | 87 | 999.2 |
| 20260904161518 | 61 | 236 | 1.0 | 4.0 | 0.00 | 0.31 | 0.31 | 85 | 999.2 |
| 20260904160016 | 61 | 252 | 1.0 | 7.0 | 0.00 | 0.31 | 0.31 | 84 | 999.3 |
| 20260904154516 | 62 | 238 | 4.0 | 7.0 | 0.00 | 0.31 | 0.31 | 83 | 999.4 |
| 20260904153020 | 62 | 229 | 3.0 | 8.0 | 0.00 | 0.31 | 0.31 | 85 | 999.4 |
| 20260904151512 | 61 | 219 | 1.0 | 8.0 | 0.01 | 0.31 | 0.31 | 87 | 999.5 |
| 20260904150025 | 60 | 235 | 2.0 | 7.0 | 0.01 | 0.31 | 0.31 | 87 | 999.6 |
| 20260904144511 | 60 | 228 | 0.0 | 4.0 | 0.02 | 0.31 | 0.31 | 89 | 999.5 |
| 20260904143013 | 60 | 252 | 0.0 | 6.0 | 0.05 | 0.31 | 0.31 | 90 | 999.7 |
| 20260904141509 | 60 | 292 | 1.0 | 5.0 | 0.05 | 0.31 | 0.31 | 90 | 999.9 |
| 20260904140008 | 61 | 289 | 3.0 | 8.0 | 0.06 | 0.31 | 0.31 | 91 | 999.8 |
| 20260904134556 | 61 | 217 | 3.0 | 5.0 | 0.05 | 0.31 | 0.28 | 92 | 999.8 |
| 20260904133143 | 61 | 237 | 2.0 | 8.0 | 0.03 | 0.28 | 0.28 | 92 | 999.9 |
| 20260904131551 | 61 | 237 | 3.0 | 8.0 | 0.02 | 0.28 | 0.26 | 92 | 999.8 |
| 20260904130144 | 61 | 227 | 2.0 | 7.0 | 0.02 | 0.27 | 0.25 | 92 | 999.5 |
| 20260904124611 | 61 | 217 | 3.0 | 8.0 | 0.03 | 0.27 | 0.24 | 92 | 999.6 |
| 20260904123005 | 61 | 211 | 3.0 | 8.0 | 0.04 | 0.27 | 0.24 | 92 | 999.7 |
| 20260904121550 | 61 | 209 | 3.0 | 7.0 | 0.05 | 0.26 | 0.24 | 92 | 1000.0 |
| 20260904120015 | 61 | 194 | 3.0 | 6.0 | 0.06 | 0.25 | 0.23 | 92 | 1000.3 |
| 20260904114558 | 61 | 215 | 4.0 | 8.0 | 0.05 | 0.27 | 0.21 | 91 | 1000.5 |
| 20260904113033 | 61 | 216 | 5.0 | 9.0 | 0.04 | 0.25 | 0.20 | 91 | 1000.8 |
| 20260904111638 | 61 | 195 | 4.0 | 11.0 | 0.05 | 0.24 | 0.19 | 91 | 1000.6 |
| 20260904110059 | 61 | 210 | 2.0 | 5.0 | 0.09 | 0.23 | 0.17 | 92 | 1000.8 |
| 20260904104502 | 61 | 249 | 2.0 | 6.0 | 0.12 | 0.23 | 0.17 | 91 | 1001.1 |
| 20260904103116 | 61 | 261 | 0.0 | 5.0 | 0.13 | 0.22 | 0.16 | 91 | 1001.3 |
| 20260904101654 | 61 | 207 | 2.0 | 6.0 | 0.11 | 0.20 | 0.14 | 91 | 1001.5 |
| 20260904100058 | 61 | 224 | 0.0 | 4.0 | 0.05 | 0.14 | 0.08 | 91 | 1001.7 |
| 20260904094548 | 61 | 234 | 3.0 | 10.0 | 0.02 | 0.13 | 0.05 | 90 | 1001.9 |
| 20260904093148 | 61 | 211 | 4.0 | 8.0 | 0.00 | 0.11 | 0.03 | 90 | 1002.2 |
| 20260904091558 | 61 | 200 | 5.0 | 9.0 | 0.01 | 0.11 | 0.03 | 90 | 1002.6 |
| 20260904090036 | 61 | 223 | 3.0 | 8.0 | 0.01 | 0.11 | 0.03 | 91 | 1002.6 |
| 20260904084531 | 61 | 214 | 6.0 | 9.0 | 0.02 | 0.12 | 0.03 | 91 | 1002.9 |
| 20260904083040 | 60 | 198 | 4.0 | 7.0 | 0.02 | 0.12 | 0.03 | 91 | 1003.2 |
| 20260904081526 | 60 | 223 | 3.0 | 7.0 | 0.01 | 0.11 | 0.02 | 91 | 1003.3 |
| 20260904080025 | 59 | 188 | 3.0 | 8.0 | 0.02 | 0.11 | 0.02 | 91 | 1003.3 |
| 20260904074525 | 59 | 211 | 1.0 | 6.0 | 0.01 | 0.11 | 0.02 | 90 | 1003.5 |
| 20260904073026 | 59 | 198 | 2.0 | 5.0 | 0.01 | 0.11 | 0.02 | 90 | 1003.5 |
| 20260904071520 | 59 | 196 | 3.0 | 6.0 | 0.01 | 0.11 | 0.02 | 90 | 1003.7 |
| 20260904070017 | 59 | 208 | 2.0 | 6.0 | 0.00 | 0.10 | 0.01 | 90 | 1003.9 |
| 20260904064514 | 59 | 205 | 3.0 | 6.0 | 0.00 | 0.12 | 0.01 | 90 | 1004.4 |
| 20260904063022 | 58 | 205 | 2.0 | 5.0 | 0.01 | 0.12 | 0.01 | 89 | 1004.4 |
| 20260904061510 | 58 | 219 | 1.0 | 5.0 | 0.01 | 0.12 | 0.01 | 89 | 1004.5 |
| 20260904060009 | 58 | 219 | 3.0 | 5.0 | 0.01 | 0.12 | 0.01 | 88 | 1004.9 |
| 20260904054505 | 58 | 219 | 2.0 | 5.0 | 0.01 | 0.13 | 0.01 | 87 | 1005.0 |
| 20260904053003 | 58 | 226 | 1.0 | 4.0 | 0.00 | 0.12 | 0.00 | 86 | 1005.2 |
| 20260904051501 | 59 | 224 | 3.0 | 5.0 | 0.00 | 0.12 | 0.00 | 85 | 1005.4 |
| 20260904050100 | 59 | 240 | 2.0 | 5.0 | 0.00 | 0.12 | 0.00 | 85 | 1005.6 |
| 20260904044557 | 59 | 234 | 2.0 | 7.0 | 0.00 | 0.12 | 0.00 | 84 | 1005.4 |
| 20260904043056 | 59 | 211 | 2.0 | 6.0 | 0.00 | 0.12 | 0.00 | 84 | 1005.6 |
| 20260904041553 | 59 | 240 | 3.0 | 6.0 | 0.00 | 0.12 | 0.00 | 84 | 1005.7 |
| 20260904034553 | 59 | 234 | 4.0 | 10.0 | 0.00 | 0.13 | 0.00 | 84 | 1006.0 |
| 20260904033046 | 59 | 223 | 2.0 | 9.0 | 0.00 | 0.13 | 0.00 | 84 | 1006.1 |
| 20260904031545 | 60 | 216 | 4.0 | 9.0 | 0.00 | 0.13 | 0.00 | 83 | 1006.4 |
| 20260904030042 | 60 | 242 | 2.0 | 6.0 | 0.00 | 0.13 | 0.00 | 83 | 1006.4 |
| 20260904024547 | 60 | 252 | 3.0 | 9.0 | 0.00 | 0.13 | 0.00 | 83 | 1006.3 |
| 20260904023049 | 60 | 225 | 3.0 | 9.0 | 0.00 | 0.13 | 0.00 | 83 | 1006.4 |
| 20260904021537 | 60 | 217 | 3.0 | 10.0 | 0.00 | 0.13 | 0.00 | 83 | 1006.5 |